Time,TemperatureF,DewpointF,PressureIn,WindDirection,WindDirectionDegrees,WindSpeedMPH,WindSpeedGustMPH,Humidity,HourlyPrecipIn,Conditions,Clouds,dailyrainin,SoftwareType,DateUTC
2013-03-18 00:00:00,33.5,26.8,30.02,NNE,27,4.0,12.0,76,0.00,,SKC,0.00,VWS V14.01,2013-03-18 04:00:00,
2013-03-18 00:05:00,33.2,26.8,30.02,NE,45,4.0,14.0,77,0.00,,SKC,0.00,VWS V14.01,2013-03-18 04:05:00,
2013-03-18 00:10:00,33.1,27.0,30.02,NE,56,6.0,14.0,78,0.00,,SKC,0.00,VWS V14.01,2013-03-18 04:10:00,
2013-03-18 00:16:00,32.9,26.8,30.02,NE,43,1.0,14.0,78,0.00,,SKC,0.00,VWS V14.01,2013-03-18 04:16:00,
2013-03-18 00:21:00,32.9,27.1,30.02,NE,38,5.0,14.0,79,0.00,,SKC,0.00,VWS V14.01,2013-03-18 04:21:00,
2013-03-18 00:26:00,32.8,27.0,30.02,NNE,32,2.0,14.0,79,0.00,,SKC,0.00,VWS V14.01,2013-03-18 04:26:00,
2013-03-18 00:31:00,32.7,26.9,30.01,NE,37,4.0,7.0,79,0.00,,SKC,0.00,VWS V14.01,2013-03-18 04:31:00,
2013-03-18 00:37:00,32.7,26.9,30.01,NNE,33,3.0,11.0,79,0.00,,SKC,0.00,VWS V14.01,2013-03-18 04:37:00,
2013-03-18 00:42:00,32.7,26.9,30.01,NNE,21,0.0,12.0,79,0.00,,SKC,0.00,VWS V14.01,2013-03-18 04:42:00,
2013-03-18 00:47:00,32.5,26.7,30.01,ENE,57,5.0,12.0,79,0.00,,SKC,0.00,VWS V14.01,2013-03-18 04:47:00,
2013-03-18 00:52:00,32.5,26.7,30.01,ENE,77,5.0,14.0,79,0.00,,SKC,0.00,VWS V14.01,2013-03-18 04:52:00,
2013-03-18 00:57:00,32.5,26.7,30.01,NE,54,1.0,14.0,79,0.00,,SKC,0.00,VWS V14.01,2013-03-18 04:57:00,
2013-03-18 01:02:00,32.4,26.9,30.01,NE,49,12.0,12.0,80,0.00,,SKC,0.00,VWS V14.01,2013-03-18 05:02:00,
2013-03-18 01:07:00,32.2,27.0,30.01,NE,34,5.0,12.0,81,0.00,,SKC,0.00,VWS V14.01,2013-03-18 05:07:00,
2013-03-18 01:12:00,32.1,27.2,30.01,NE,36,1.0,12.0,82,0.00,,SKC,0.00,VWS V14.01,2013-03-18 05:12:00,
2013-03-18 01:17:00,32.1,27.2,29.99,NE,44,2.0,13.0,82,0.00,,SKC,0.00,VWS V14.01,2013-03-18 05:17:00,
2013-03-18 01:22:00,31.9,27.3,29.99,NE,51,2.0,13.0,83,0.00,,SKC,0.00,VWS V14.01,2013-03-18 05:22:00,
2013-03-18 01:27:00,31.9,27.6,29.99,NE,50,2.0,13.0,84,0.00,,SKC,0.00,VWS V14.01,2013-03-18 05:27:00,
2013-03-18 01:32:00,31.9,27.9,29.98,ENE,76,3.0,6.0,85,0.00,,SKC,0.00,VWS V14.01,2013-03-18 05:32:00,
2013-03-18 01:37:00,31.9,28.2,29.98,East,99,4.0,12.0,86,0.00,,SKC,0.00,VWS V14.01,2013-03-18 05:37:00,
2013-03-18 01:42:00,31.8,28.1,29.98,East,82,6.0,13.0,86,0.00,,SKC,0.00,VWS V14.01,2013-03-18 05:42:00,
2013-03-18 01:48:00,31.8,28.4,29.96,ENE,63,2.0,13.0,87,0.00,,SKC,0.00,VWS V14.01,2013-03-18 05:48:00,
2013-03-18 01:53:00,31.8,28.7,29.96,ENE,70,4.0,13.0,88,0.01,,SKC,0.01,VWS V14.01,2013-03-18 05:53:00,
2013-03-18 01:58:00,31.8,28.7,29.96,ENE,75,3.0,14.0,88,0.02,,SKC,0.02,VWS V14.01,2013-03-18 05:58:00,
2013-03-18 02:03:00,31.8,28.9,29.94,NNE,32,7.0,10.0,89,0.03,,SKC,0.03,VWS V14.01,2013-03-18 06:03:00,
2013-03-18 02:08:00,31.8,28.9,29.94,ENE,66,3.0,10.0,89,0.04,,SKC,0.04,VWS V14.01,2013-03-18 06:08:00,
2013-03-18 02:13:00,31.8,29.2,29.94,NNE,22,3.0,12.0,90,0.05,,SKC,0.05,VWS V14.01,2013-03-18 06:13:00,
2013-03-18 02:18:00,31.8,29.2,29.93,NE,34,5.0,12.0,90,0.06,,SKC,0.06,VWS V14.01,2013-03-18 06:18:00,
2013-03-18 02:23:00,31.8,29.2,29.93,ESE,104,4.0,12.0,90,0.07,,SKC,0.07,VWS V14.01,2013-03-18 06:23:00,
2013-03-18 02:28:00,31.8,29.2,29.93,NE,41,4.0,12.0,90,0.08,,SKC,0.08,VWS V14.01,2013-03-18 06:28:00,
2013-03-18 02:34:00,31.8,29.5,29.93,NE,56,12.0,12.0,91,0.08,,SKC,0.08,VWS V14.01,2013-03-18 06:34:00,
2013-03-18 02:39:00,31.8,29.5,29.93,ENE,61,0.0,17.0,91,0.09,,SKC,0.09,VWS V14.01,2013-03-18 06:39:00,
2013-03-18 02:44:00,31.8,29.5,29.93,NE,53,0.0,17.0,91,0.10,,SKC,0.10,VWS V14.01,2013-03-18 06:44:00,
2013-03-18 02:49:00,31.8,29.5,29.92,NE,52,0.0,17.0,91,0.10,,SKC,0.10,VWS V14.01,2013-03-18 06:49:00,
2013-03-18 02:54:00,31.8,29.5,29.92,ENE,60,0.0,17.0,91,0.10,,SKC,0.10,VWS V14.01,2013-03-18 06:54:00,
2013-03-18 02:59:00,31.8,29.8,29.92,ENE,59,0.0,17.0,92,0.10,,SKC,0.10,VWS V14.01,2013-03-18 06:59:00,
2013-03-18 03:04:00,31.9,29.8,29.91,ENE,60,0.0,0.0,92,0.08,,SKC,0.11,VWS V14.01,2013-03-18 07:04:00,
2013-03-18 03:09:00,31.9,29.8,29.91,ENE,59,0.0,0.0,92,0.08,,SKC,0.11,VWS V14.01,2013-03-18 07:09:00,
2013-03-18 03:14:00,31.9,29.8,29.91,ENE,59,0.0,0.0,92,0.08,,SKC,0.11,VWS V14.01,2013-03-18 07:14:00,
2013-03-18 03:19:00,31.9,29.8,29.91,ENE,59,0.0,0.0,92,0.08,,SKC,0.11,VWS V14.01,2013-03-18 07:19:00,
2013-03-18 03:24:00,31.9,29.8,29.91,ENE,59,0.0,0.0,92,0.08,,SKC,0.11,VWS V14.01,2013-03-18 07:24:00,
2013-03-18 03:29:00,31.9,29.8,29.91,ENE,59,0.0,0.0,92,0.08,,SKC,0.11,VWS V14.01,2013-03-18 07:29:00,
2013-03-18 03:34:00,31.9,29.8,29.90,ENE,59,0.0,0.0,92,0.03,,SKC,0.11,VWS V14.01,2013-03-18 07:34:00,
2013-03-18 03:40:00,31.9,29.8,29.90,ENE,59,0.0,0.0,92,0.03,,SKC,0.11,VWS V14.01,2013-03-18 07:40:00,
2013-03-18 03:45:00,32.1,30.0,29.90,ENE,59,0.0,0.0,92,0.04,,SKC,0.12,VWS V14.01,2013-03-18 07:45:00,
2013-03-18 03:50:00,32.1,30.0,29.90,ENE,59,0.0,0.0,92,0.05,,SKC,0.13,VWS V14.01,2013-03-18 07:50:00,
2013-03-18 03:55:00,32.1,30.0,29.90,ENE,59,0.0,0.0,92,0.05,,SKC,0.13,VWS V14.01,2013-03-18 07:55:00,
2013-03-18 04:00:00,32.1,30.3,29.89,ENE,59,0.0,0.0,93,0.06,,SKC,0.14,VWS V14.01,2013-03-18 08:00:00,
2013-03-18 04:05:00,32.1,30.3,29.89,ENE,59,0.0,0.0,93,0.03,,SKC,0.14,VWS V14.01,2013-03-18 08:05:00,
2013-03-18 04:10:00,32.1,30.3,29.89,ENE,59,0.0,0.0,93,0.04,,SKC,0.15,VWS V14.01,2013-03-18 08:10:00,
2013-03-18 04:15:00,32.1,30.3,29.88,ENE,59,0.0,0.0,93,0.04,,SKC,0.15,VWS V14.01,2013-03-18 08:15:00,
2013-03-18 04:20:00,32.1,30.3,29.88,ENE,59,0.0,0.0,93,0.05,,SKC,0.16,VWS V14.01,2013-03-18 08:20:00,
2013-03-18 04:25:00,32.1,30.3,29.88,ENE,59,0.0,0.0,93,0.06,,SKC,0.17,VWS V14.01,2013-03-18 08:25:00,
2013-03-18 04:30:00,32.1,30.3,29.86,ENE,59,0.0,0.0,93,0.06,,SKC,0.17,VWS V14.01,2013-03-18 08:30:00,
2013-03-18 04:35:00,32.1,30.3,29.86,ENE,59,0.0,0.0,93,0.06,,SKC,0.17,VWS V14.01,2013-03-18 08:35:00,
2013-03-18 04:40:00,32.1,30.3,29.86,ENE,59,0.0,0.0,93,0.06,,SKC,0.17,VWS V14.01,2013-03-18 08:40:00,
2013-03-18 04:45:00,32.1,30.3,29.85,ENE,59,0.0,0.0,93,0.06,,SKC,0.17,VWS V14.01,2013-03-18 08:45:00,
2013-03-18 04:50:00,32.1,30.3,29.85,ENE,59,0.0,0.0,93,0.06,,SKC,0.17,VWS V14.01,2013-03-18 08:50:00,
2013-03-18 04:55:00,32.1,30.3,29.85,ENE,59,0.0,0.0,93,0.06,,SKC,0.17,VWS V14.01,2013-03-18 08:55:00,
2013-03-18 05:00:00,32.1,30.3,29.85,ENE,59,0.0,0.0,93,0.06,,SKC,0.17,VWS V14.01,2013-03-18 09:00:00,
2013-03-18 05:05:00,32.2,30.7,29.85,ENE,59,0.0,0.0,94,0.03,,SKC,0.17,VWS V14.01,2013-03-18 09:05:00,
2013-03-18 05:10:00,32.2,30.7,29.85,ENE,59,0.0,0.0,94,0.03,,SKC,0.17,VWS V14.01,2013-03-18 09:10:00,
2013-03-18 05:16:00,32.2,30.7,29.83,ENE,59,0.0,0.0,94,0.03,,SKC,0.17,VWS V14.01,2013-03-18 09:16:00,
2013-03-18 05:21:00,32.2,30.7,29.83,ENE,59,0.0,0.0,94,0.03,,SKC,0.17,VWS V14.01,2013-03-18 09:21:00,
2013-03-18 05:26:00,32.2,30.7,29.83,ENE,59,0.0,0.0,94,0.03,,SKC,0.17,VWS V14.01,2013-03-18 09:26:00,
2013-03-18 05:31:00,32.2,30.7,29.82,ENE,59,0.0,0.0,94,0.00,,SKC,0.17,VWS V14.01,2013-03-18 09:31:00,
2013-03-18 05:36:00,32.2,30.7,29.82,ENE,59,0.0,0.0,94,0.00,,SKC,0.17,VWS V14.01,2013-03-18 09:36:00,
2013-03-18 05:41:00,32.2,30.7,29.82,ENE,59,0.0,0.0,94,0.00,,SKC,0.17,VWS V14.01,2013-03-18 09:41:00,
2013-03-18 05:46:00,32.2,30.7,29.82,ENE,59,0.0,0.0,94,0.00,,SKC,0.17,VWS V14.01,2013-03-18 09:46:00,
2013-03-18 05:52:00,32.2,30.7,29.82,ENE,59,0.0,0.0,94,0.00,,SKC,0.17,VWS V14.01,2013-03-18 09:52:00,
2013-03-18 05:57:00,32.2,30.7,29.82,ENE,59,0.0,0.0,94,0.00,,SKC,0.17,VWS V14.01,2013-03-18 09:57:00,
2013-03-18 06:02:00,32.2,30.7,29.79,ENE,59,0.0,0.0,94,0.00,,SKC,0.17,VWS V14.01,2013-03-18 10:02:00,
2013-03-18 06:07:00,32.4,30.9,29.79,ENE,59,0.0,0.0,94,0.00,,SKC,0.17,VWS V14.01,2013-03-18 10:07:00,
2013-03-18 06:12:00,32.4,30.9,29.79,ENE,59,0.0,0.0,94,0.00,,SKC,0.17,VWS V14.01,2013-03-18 10:12:00,
2013-03-18 06:17:00,32.4,30.9,29.78,ENE,59,0.0,0.0,94,0.01,,SKC,0.18,VWS V14.01,2013-03-18 10:17:00,
2013-03-18 06:22:00,32.4,31.1,29.78,ENE,59,0.0,0.0,95,0.01,,SKC,0.18,VWS V14.01,2013-03-18 10:22:00,
2013-03-18 06:27:00,32.4,31.1,29.78,ENE,59,0.0,0.0,95,0.01,,SKC,0.18,VWS V14.01,2013-03-18 10:27:00,
2013-03-18 06:32:00,32.4,31.1,29.78,ENE,59,0.0,0.0,95,0.01,,SKC,0.18,VWS V14.01,2013-03-18 10:32:00,
2013-03-18 06:37:00,32.5,31.2,29.78,ENE,59,0.0,0.0,95,0.01,,SKC,0.18,VWS V14.01,2013-03-18 10:37:00,
2013-03-18 06:43:00,32.5,31.2,29.78,ENE,59,0.0,0.0,95,0.01,,SKC,0.18,VWS V14.01,2013-03-18 10:43:00,
2013-03-18 06:48:00,32.5,31.2,29.78,ENE,59,0.0,0.0,95,0.01,,SKC,0.18,VWS V14.01,2013-03-18 10:48:00,
2013-03-18 06:53:00,32.5,31.2,29.78,ENE,59,0.0,0.0,95,0.01,,SKC,0.18,VWS V14.01,2013-03-18 10:53:00,
2013-03-18 06:58:00,32.5,31.2,29.78,ENE,59,0.0,0.0,95,0.01,,SKC,0.18,VWS V14.01,2013-03-18 10:58:00,
2013-03-18 07:03:00,32.5,31.2,29.77,ENE,59,0.0,0.0,95,0.01,,SKC,0.18,VWS V14.01,2013-03-18 11:03:00,
2013-03-18 07:08:00,32.5,31.2,29.77,ENE,59,0.0,0.0,95,0.01,,SKC,0.18,VWS V14.01,2013-03-18 11:08:00,
2013-03-18 07:13:00,32.5,31.2,29.77,ENE,59,0.0,0.0,95,0.01,,SKC,0.18,VWS V14.01,2013-03-18 11:13:00,
2013-03-18 07:18:00,32.7,31.4,29.77,ENE,59,0.0,0.0,95,0.01,,SKC,0.18,VWS V14.01,2013-03-18 11:18:00,
2013-03-18 07:23:00,32.7,31.4,29.77,ENE,59,0.0,0.0,95,0.01,,SKC,0.18,VWS V14.01,2013-03-18 11:23:00,
2013-03-18 07:28:00,32.7,31.4,29.77,ENE,59,0.0,0.0,95,0.01,,SKC,0.18,VWS V14.01,2013-03-18 11:28:00,
2013-03-18 07:33:00,32.7,31.4,29.76,ENE,59,0.0,0.0,95,0.00,,SKC,0.18,VWS V14.01,2013-03-18 11:33:00,
2013-03-18 07:38:00,32.7,31.4,29.76,ENE,59,0.0,0.0,95,0.00,,SKC,0.18,VWS V14.01,2013-03-18 11:38:00,
2013-03-18 07:43:00,32.7,31.4,29.76,ENE,59,0.0,0.0,95,0.00,,SKC,0.18,VWS V14.01,2013-03-18 11:43:00,
2013-03-18 07:48:00,32.7,31.4,29.76,ENE,59,0.0,0.0,95,0.00,,SKC,0.18,VWS V14.01,2013-03-18 11:48:00,
2013-03-18 07:54:00,32.7,31.4,29.76,ENE,59,0.0,0.0,95,0.00,,SKC,0.18,VWS V14.01,2013-03-18 11:54:00,
2013-03-18 07:59:00,32.8,31.5,29.76,ENE,59,0.0,0.0,95,0.00,,SKC,0.18,VWS V14.01,2013-03-18 11:59:00,
2013-03-18 08:04:00,32.8,31.5,29.75,ENE,59,0.0,0.0,95,0.01,,SKC,0.19,VWS V14.01,2013-03-18 12:04:00,
2013-03-18 08:09:00,32.8,31.5,29.75,ENE,59,0.0,0.0,95,0.01,,SKC,0.19,VWS V14.01,2013-03-18 12:09:00,
2013-03-18 08:14:00,32.8,31.5,29.75,ENE,59,0.0,0.0,95,0.01,,SKC,0.19,VWS V14.01,2013-03-18 12:14:00,
2013-03-18 08:19:00,32.8,31.5,29.75,ENE,59,0.0,0.0,95,0.01,,SKC,0.19,VWS V14.01,2013-03-18 12:19:00,
2013-03-18 08:24:00,32.8,31.5,29.75,ENE,59,0.0,0.0,95,0.01,,SKC,0.19,VWS V14.01,2013-03-18 12:24:00,
2013-03-18 08:29:00,32.8,31.5,29.75,ENE,59,0.0,0.0,95,0.01,,SKC,0.19,VWS V14.01,2013-03-18 12:29:00,
2013-03-18 08:34:00,32.9,31.6,29.74,ENE,59,0.0,0.0,95,0.01,,SKC,0.19,VWS V14.01,2013-03-18 12:34:00,
2013-03-18 08:39:00,32.9,31.9,29.74,ENE,59,0.0,0.0,96,0.01,,SKC,0.19,VWS V14.01,2013-03-18 12:39:00,
2013-03-18 08:44:00,32.9,31.9,29.74,ENE,59,0.0,0.0,96,0.01,,SKC,0.19,VWS V14.01,2013-03-18 12:44:00,
2013-03-18 08:49:00,33.1,32.1,29.74,East,97,0.0,0.0,96,0.01,,SKC,0.19,VWS V14.01,2013-03-18 12:49:00,
2013-03-18 08:54:00,33.1,32.1,29.74,East,80,2.0,2.0,96,0.01,,SKC,0.19,VWS V14.01,2013-03-18 12:54:00,
2013-03-18 08:59:00,33.1,32.1,29.74,East,80,0.0,2.0,96,0.01,,SKC,0.19,VWS V14.01,2013-03-18 12:59:00,
2013-03-18 09:04:00,33.2,32.2,29.74,East,80,2.0,3.0,96,0.01,,SKC,0.19,VWS V14.01,2013-03-18 13:04:00,
2013-03-18 09:10:00,33.2,32.2,29.74,ESE,117,1.0,6.0,96,0.01,,SKC,0.19,VWS V14.01,2013-03-18 13:10:00,
2013-03-18 09:15:00,33.2,32.2,29.73,East,80,0.0,6.0,96,0.01,,SKC,0.19,VWS V14.01,2013-03-18 13:15:00,
2013-03-18 09:20:00,33.4,32.4,29.73,East,80,2.0,6.0,96,0.01,,SKC,0.19,VWS V14.01,2013-03-18 13:20:00,
2013-03-18 09:25:00,33.4,32.4,29.73,East,79,0.0,6.0,96,0.02,,SKC,0.20,VWS V14.01,2013-03-18 13:25:00,
2013-03-18 09:30:00,33.5,32.5,29.72,East,91,0.0,6.0,96,0.02,,SKC,0.20,VWS V14.01,2013-03-18 13:30:00,
2013-03-18 09:35:00,33.5,32.5,29.72,East,91,1.0,3.0,96,0.01,,SKC,0.20,VWS V14.01,2013-03-18 13:35:00,
2013-03-18 09:40:00,33.5,32.5,29.72,East,91,0.0,3.0,96,0.01,,SKC,0.20,VWS V14.01,2013-03-18 13:40:00,
2013-03-18 09:45:00,33.7,32.7,29.71,East,91,1.0,3.0,96,0.02,,SKC,0.21,VWS V14.01,2013-03-18 13:45:00,
2013-03-18 09:50:00,33.7,32.7,29.71,NE,55,0.0,4.0,96,0.02,,SKC,0.21,VWS V14.01,2013-03-18 13:50:00,
2013-03-18 09:55:00,33.8,32.8,29.71,NE,55,0.0,4.0,96,0.02,,SKC,0.21,VWS V14.01,2013-03-18 13:55:00,
2013-03-18 10:00:00,34.0,33.0,29.70,NE,55,1.0,4.0,96,0.02,,SKC,0.21,VWS V14.01,2013-03-18 14:00:00,
2013-03-18 10:05:00,34.0,33.0,29.70,NE,55,0.0,3.0,96,0.03,,SKC,0.22,VWS V14.01,2013-03-18 14:05:00,
2013-03-18 10:11:00,34.1,33.1,29.70,NE,55,1.0,3.0,96,0.03,,SKC,0.22,VWS V14.01,2013-03-18 14:11:00,
2013-03-18 10:16:00,34.1,33.1,29.70,East,86,0.0,4.0,96,0.03,,SKC,0.22,VWS V14.01,2013-03-18 14:16:00,
2013-03-18 10:21:00,34.3,33.3,29.70,ENE,58,2.0,4.0,96,0.03,,SKC,0.22,VWS V14.01,2013-03-18 14:21:00,
2013-03-18 10:26:00,34.3,33.3,29.70,ESE,115,0.0,4.0,96,0.03,,SKC,0.22,VWS V14.01,2013-03-18 14:26:00,
2013-03-18 10:32:00,34.4,33.4,29.69,East,101,0.0,3.0,96,0.02,,SKC,0.22,VWS V14.01,2013-03-18 14:32:00,
2013-03-18 10:36:00,34.6,33.6,29.69,East,99,0.0,3.0,96,0.02,,SKC,0.22,VWS V14.01,2013-03-18 14:36:00,
2013-03-18 10:41:00,34.6,33.6,29.69,ESE,103,0.0,4.0,96,0.03,,SKC,0.23,VWS V14.01,2013-03-18 14:41:00,
2013-03-18 10:47:00,34.7,33.7,29.69,ESE,103,0.0,4.0,96,0.03,,SKC,0.23,VWS V14.01,2013-03-18 14:47:00,
2013-03-18 10:52:00,34.9,33.9,29.69,ESE,103,0.0,4.0,96,0.03,,SKC,0.23,VWS V14.01,2013-03-18 14:52:00,
2013-03-18 10:57:00,34.9,33.9,29.69,ESE,103,3.0,4.0,96,0.03,,SKC,0.23,VWS V14.01,2013-03-18 14:57:00,
2013-03-18 11:02:00,35.0,34.0,29.69,ESE,103,0.0,3.0,96,0.02,,SKC,0.23,VWS V14.01,2013-03-18 15:02:00,
2013-03-18 11:07:00,35.2,34.2,29.69,ESE,103,1.0,4.0,96,0.02,,SKC,0.23,VWS V14.01,2013-03-18 15:07:00,
2013-03-18 11:12:00,35.3,34.3,29.69,ESE,103,3.0,4.0,96,0.02,,SKC,0.23,VWS V14.01,2013-03-18 15:12:00,
2013-03-18 11:17:00,35.5,34.5,29.69,ESE,103,0.0,4.0,96,0.02,,SKC,0.23,VWS V14.01,2013-03-18 15:17:00,
2013-03-18 11:22:00,35.6,34.6,29.69,ESE,104,3.0,4.0,96,0.03,,SKC,0.24,VWS V14.01,2013-03-18 15:22:00,
2013-03-18 11:27:00,35.6,34.6,29.69,ESE,108,1.0,6.0,96,0.03,,SKC,0.24,VWS V14.01,2013-03-18 15:27:00,
2013-03-18 11:33:00,35.8,34.8,29.68,ESE,109,5.0,6.0,96,0.02,,SKC,0.24,VWS V14.01,2013-03-18 15:33:00,
2013-03-18 11:38:00,35.9,34.9,29.68,ESE,122,3.0,6.0,96,0.02,,SKC,0.24,VWS V14.01,2013-03-18 15:38:00,
2013-03-18 11:43:00,35.9,34.9,29.68,ESE,112,2.0,6.0,96,0.02,,SKC,0.24,VWS V14.01,2013-03-18 15:43:00,
2013-03-18 11:48:00,36.0,35.0,29.68,East,101,2.0,6.0,96,0.02,,SKC,0.24,VWS V14.01,2013-03-18 15:48:00,
2013-03-18 11:53:00,36.2,35.2,29.68,East,101,0.0,6.0,96,0.03,,SKC,0.25,VWS V14.01,2013-03-18 15:53:00,
2013-03-18 11:58:00,36.3,35.3,29.68,East,101,0.0,6.0,96,0.03,,SKC,0.25,VWS V14.01,2013-03-18 15:58:00,
2013-03-18 12:03:00,36.5,35.5,29.69,East,101,0.0,2.0,96,0.02,,SKC,0.25,VWS V14.01,2013-03-18 16:03:00,
2013-03-18 12:08:00,36.6,35.6,29.69,East,101,1.0,2.0,96,0.02,,SKC,0.25,VWS V14.01,2013-03-18 16:08:00,
2013-03-18 12:13:00,36.6,35.6,29.69,East,101,0.0,3.0,96,0.02,,SKC,0.25,VWS V14.01,2013-03-18 16:13:00,
2013-03-18 12:18:00,36.8,35.8,29.69,East,101,0.0,3.0,96,0.02,,SKC,0.25,VWS V14.01,2013-03-18 16:18:00,
2013-03-18 12:23:00,36.9,35.9,29.69,East,101,0.0,3.0,96,0.03,,SKC,0.26,VWS V14.01,2013-03-18 16:23:00,
2013-03-18 12:28:00,37.0,36.0,29.69,East,101,0.0,3.0,96,0.03,,SKC,0.26,VWS V14.01,2013-03-18 16:28:00,
2013-03-18 12:33:00,37.2,36.2,29.67,South,172,3.0,6.0,96,0.02,,SKC,0.26,VWS V14.01,2013-03-18 16:33:00,
2013-03-18 12:38:00,37.2,36.2,29.67,SSE,159,0.0,6.0,96,0.02,,SKC,0.26,VWS V14.01,2013-03-18 16:38:00,
2013-03-18 12:43:00,37.3,36.3,29.67,SSE,158,0.0,6.0,96,0.02,,SKC,0.26,VWS V14.01,2013-03-18 16:43:00,
2013-03-18 12:48:00,37.6,36.6,29.68,South,181,1.0,6.0,96,0.02,,SKC,0.26,VWS V14.01,2013-03-18 16:48:00,
2013-03-18 12:54:00,37.6,36.6,29.68,SSE,158,0.0,6.0,96,0.02,,SKC,0.26,VWS V14.01,2013-03-18 16:54:00,
2013-03-18 12:59:00,37.9,36.9,29.68,SSE,160,1.0,6.0,96,0.03,,SKC,0.27,VWS V14.01,2013-03-18 16:59:00,
2013-03-18 13:04:00,38.0,37.0,29.68,SSE,160,0.0,0.0,96,0.02,,SKC,0.27,VWS V14.01,2013-03-18 17:04:00,
2013-03-18 13:09:00,38.2,37.2,29.68,SE,140,4.0,6.0,96,0.02,,SKC,0.27,VWS V14.01,2013-03-18 17:09:00,
2013-03-18 13:14:00,38.3,37.3,29.68,SE,130,10.0,10.0,96,0.02,,SKC,0.27,VWS V14.01,2013-03-18 17:14:00,
2013-03-18 13:19:00,38.5,37.7,29.66,ESE,111,0.0,10.0,97,0.02,,SKC,0.27,VWS V14.01,2013-03-18 17:19:00,
2013-03-18 13:24:00,38.8,38.0,29.66,SSW,195,3.0,10.0,97,0.03,,SKC,0.28,VWS V14.01,2013-03-18 17:24:00,
2013-03-18 13:29:00,39.1,38.3,29.66,SSE,151,1.0,10.0,97,0.03,,SKC,0.28,VWS V14.01,2013-03-18 17:29:00,
2013-03-18 13:34:00,39.6,38.8,29.64,SSE,157,5.0,11.0,97,0.02,,SKC,0.28,VWS V14.01,2013-03-18 17:34:00,
2013-03-18 13:39:00,39.8,39.0,29.64,South,174,6.0,11.0,97,0.02,,SKC,0.28,VWS V14.01,2013-03-18 17:39:00,
2013-03-18 13:44:00,39.8,39.0,29.64,South,191,4.0,11.0,97,0.02,,SKC,0.28,VWS V14.01,2013-03-18 17:44:00,
2013-03-18 13:49:00,39.8,39.0,29.65,South,181,1.0,11.0,97,0.02,,SKC,0.28,VWS V14.01,2013-03-18 17:49:00,
2013-03-18 13:54:00,39.9,39.1,29.65,SSW,194,2.0,11.0,97,0.02,,SKC,0.28,VWS V14.01,2013-03-18 17:54:00,
2013-03-18 13:59:00,40.2,39.4,29.65,South,181,0.0,11.0,97,0.03,,SKC,0.29,VWS V14.01,2013-03-18 17:59:00,
2013-03-18 14:04:00,40.3,39.5,29.64,South,179,1.0,6.0,97,0.02,,SKC,0.29,VWS V14.01,2013-03-18 18:04:00,
2013-03-18 14:10:00,40.5,39.7,29.64,SSW,211,0.0,7.0,97,0.02,,SKC,0.29,VWS V14.01,2013-03-18 18:10:00,
2013-03-18 14:15:00,40.6,39.8,29.61,SSW,202,0.0,7.0,97,0.02,,SKC,0.29,VWS V14.01,2013-03-18 18:15:00,
2013-03-18 14:20:00,40.6,39.8,29.61,SSW,195,4.0,10.0,97,0.02,,SKC,0.29,VWS V14.01,2013-03-18 18:20:00,
2013-03-18 14:25:00,40.6,39.8,29.61,SW,224,1.0,11.0,97,0.03,,SKC,0.30,VWS V14.01,2013-03-18 18:25:00,
2013-03-18 14:30:00,40.8,40.0,29.65,SSW,205,3.0,11.0,97,0.03,,SKC,0.30,VWS V14.01,2013-03-18 18:30:00,
2013-03-18 14:35:00,40.9,40.1,29.65,SSW,212,9.0,9.0,97,0.02,,SKC,0.30,VWS V14.01,2013-03-18 18:35:00,
2013-03-18 14:40:00,40.9,40.1,29.65,WSW,238,4.0,14.0,97,0.02,,SKC,0.30,VWS V14.01,2013-03-18 18:40:00,
2013-03-18 14:45:00,41.1,40.3,29.65,SW,217,3.0,14.0,97,0.02,,SKC,0.30,VWS V14.01,2013-03-18 18:45:00,
2013-03-18 14:50:00,41.1,40.3,29.65,West,268,4.0,14.0,97,0.03,,SKC,0.31,VWS V14.01,2013-03-18 18:50:00,
2013-03-18 14:55:00,41.2,40.4,29.65,SW,217,3.0,16.0,97,0.03,,SKC,0.31,VWS V14.01,2013-03-18 18:55:00,
2013-03-18 15:00:00,41.2,40.4,29.67,SW,224,9.0,16.0,97,0.03,,SKC,0.31,VWS V14.01,2013-03-18 19:00:00,
2013-03-18 15:05:00,41.3,40.5,29.67,South,188,10.0,11.0,97,0.02,,SKC,0.31,VWS V14.01,2013-03-18 19:05:00,
2013-03-18 15:10:00,41.3,40.5,29.67,WSW,245,10.0,16.0,97,0.02,,SKC,0.31,VWS V14.01,2013-03-18 19:10:00,
2013-03-18 15:15:00,41.3,40.5,29.65,WSW,246,6.0,16.0,97,0.02,,SKC,0.31,VWS V14.01,2013-03-18 19:15:00,
2013-03-18 15:21:00,41.3,40.5,29.65,SW,218,11.0,16.0,97,0.02,,SKC,0.31,VWS V14.01,2013-03-18 19:21:00,
2013-03-18 15:26:00,41.2,40.2,29.65,SW,228,8.0,16.0,96,0.02,,SKC,0.31,VWS V14.01,2013-03-18 19:26:00,
2013-03-18 15:31:00,41.2,40.2,29.65,SW,232,13.0,13.0,96,0.02,,SKC,0.32,VWS V14.01,2013-03-18 19:31:00,
2013-03-18 15:36:00,41.1,40.0,29.65,WSW,248,2.0,17.0,96,0.02,,SKC,0.32,VWS V14.01,2013-03-18 19:36:00,
2013-03-18 15:41:00,41.1,40.0,29.65,WSW,252,4.0,21.0,96,0.02,,SKC,0.32,VWS V14.01,2013-03-18 19:41:00,
2013-03-18 15:46:00,41.1,40.0,29.67,WNW,288,6.0,21.0,96,0.02,,SKC,0.32,VWS V14.01,2013-03-18 19:46:00,
2013-03-18 15:52:00,40.9,39.8,29.67,West,259,11.0,21.0,96,0.02,,SKC,0.32,VWS V14.01,2013-03-18 19:52:00,
2013-03-18 15:57:00,40.9,39.8,29.67,WSW,257,6.0,21.0,96,0.02,,SKC,0.32,VWS V14.01,2013-03-18 19:57:00,
2013-03-18 16:02:00,40.8,39.8,29.65,West,272,3.0,15.0,96,0.01,,SKC,0.32,VWS V14.01,2013-03-18 20:02:00,
2013-03-18 16:07:00,40.6,39.5,29.65,West,269,7.0,15.0,96,0.01,,SKC,0.32,VWS V14.01,2013-03-18 20:07:00,
2013-03-18 16:12:00,40.6,39.5,29.65,West,260,9.0,15.0,96,0.01,,SKC,0.32,VWS V14.01,2013-03-18 20:12:00,
2013-03-18 16:17:00,40.6,39.5,29.65,SW,226,16.0,20.0,96,0.01,,SKC,0.32,VWS V14.01,2013-03-18 20:17:00,
2013-03-18 16:22:00,40.6,39.3,29.65,WSW,251,6.0,20.0,95,0.01,,SKC,0.32,VWS V14.01,2013-03-18 20:22:00,
2013-03-18 16:27:00,40.6,39.3,29.65,WSW,246,6.0,22.0,95,0.01,,SKC,0.32,VWS V14.01,2013-03-18 20:27:00,
2013-03-18 16:33:00,40.6,39.3,29.66,WNW,289,4.0,17.0,95,0.00,,SKC,0.32,VWS V14.01,2013-03-18 20:33:00,
2013-03-18 16:38:00,40.6,39.3,29.66,WSW,257,6.0,18.0,95,0.00,,SKC,0.32,VWS V14.01,2013-03-18 20:38:00,
2013-03-18 16:43:00,40.3,39.0,29.66,West,271,9.0,23.0,95,0.00,,SKC,0.32,VWS V14.01,2013-03-18 20:43:00,
2013-03-18 16:48:00,40.3,39.0,29.67,WSW,251,6.0,23.0,95,0.00,,SKC,0.32,VWS V14.01,2013-03-18 20:48:00,
2013-03-18 16:53:00,40.3,38.7,29.67,SW,214,4.0,23.0,94,0.00,,SKC,0.32,VWS V14.01,2013-03-18 20:53:00,
2013-03-18 16:58:00,40.3,38.7,29.67,SW,233,7.0,23.0,94,0.00,,SKC,0.32,VWS V14.01,2013-03-18 20:58:00,
2013-03-18 17:03:00,40.1,38.2,29.68,West,267,11.0,15.0,93,0.00,,SKC,0.32,VWS V14.01,2013-03-18 21:03:00,
2013-03-18 17:08:00,39.9,38.0,29.68,West,273,3.0,16.0,93,0.00,,SKC,0.32,VWS V14.01,2013-03-18 21:08:00,
2013-03-18 17:13:00,39.8,38.0,29.68,West,267,2.0,20.0,93,0.00,,SKC,0.32,VWS V14.01,2013-03-18 21:13:00,
2013-03-18 17:18:00,39.8,37.7,29.69,WSW,252,5.0,20.0,92,0.00,,SKC,0.32,VWS V14.01,2013-03-18 21:18:00,
2013-03-18 17:23:00,39.6,37.5,29.69,West,261,5.0,20.0,92,0.00,,SKC,0.32,VWS V14.01,2013-03-18 21:23:00,
2013-03-18 17:28:00,39.6,37.5,29.69,WNW,293,12.0,20.0,92,0.00,,SKC,0.32,VWS V14.01,2013-03-18 21:28:00,
2013-03-18 17:33:00,39.5,37.4,29.71,West,269,7.0,14.0,92,0.00,,SKC,0.32,VWS V14.01,2013-03-18 21:33:00,
2013-03-18 17:38:00,39.3,37.2,29.71,West,264,5.0,14.0,92,0.00,,SKC,0.32,VWS V14.01,2013-03-18 21:38:00,
2013-03-18 17:43:00,39.2,37.1,29.71,West,260,5.0,18.0,92,0.00,,SKC,0.32,VWS V14.01,2013-03-18 21:43:00,
2013-03-18 17:48:00,38.9,36.5,29.72,West,262,4.0,18.0,91,0.00,,SKC,0.32,VWS V14.01,2013-03-18 21:48:00,
2013-03-18 17:53:00,38.8,36.4,29.72,WNW,287,9.0,18.0,91,0.00,,SKC,0.32,VWS V14.01,2013-03-18 21:53:00,
2013-03-18 17:58:00,38.6,36.2,29.72,WSW,243,5.0,18.0,91,0.00,,SKC,0.32,VWS V14.01,2013-03-18 21:58:00,
2013-03-18 18:03:00,38.6,36.2,29.73,West,276,5.0,13.0,91,0.00,,SKC,0.32,VWS V14.01,2013-03-18 22:03:00,
2013-03-18 18:08:00,38.5,36.1,29.73,WSW,257,11.0,13.0,91,0.00,,SKC,0.32,VWS V14.01,2013-03-18 22:08:00,
2013-03-18 18:13:00,38.3,35.9,29.73,SW,233,12.0,16.0,91,0.00,,SKC,0.32,VWS V14.01,2013-03-18 22:13:00,
2013-03-18 18:18:00,38.3,35.9,29.73,WSW,248,1.0,16.0,91,0.00,,SKC,0.32,VWS V14.01,2013-03-18 22:18:00,
2013-03-18 18:24:00,38.3,35.9,29.73,SW,233,1.0,16.0,91,0.00,,SKC,0.32,VWS V14.01,2013-03-18 22:24:00,
2013-03-18 18:29:00,38.2,35.8,29.73,SSW,213,4.0,17.0,91,0.01,,SKC,0.33,VWS V14.01,2013-03-18 22:29:00,
2013-03-18 18:34:00,37.9,35.5,29.73,West,271,2.0,16.0,91,0.01,,SKC,0.33,VWS V14.01,2013-03-18 22:34:00,
2013-03-18 18:39:00,37.9,35.5,29.73,WSW,255,15.0,16.0,91,0.01,,SKC,0.33,VWS V14.01,2013-03-18 22:39:00,
2013-03-18 18:44:00,37.8,35.4,29.73,WSW,255,3.0,16.0,91,0.01,,SKC,0.33,VWS V14.01,2013-03-18 22:44:00,
2013-03-18 18:49:00,37.8,35.4,29.75,SW,236,6.0,16.0,91,0.01,,SKC,0.33,VWS V14.01,2013-03-18 22:49:00,
2013-03-18 18:54:00,37.6,35.2,29.75,WSW,253,21.0,21.0,91,0.01,,SKC,0.33,VWS V14.01,2013-03-18 22:54:00,
2013-03-18 18:59:00,37.6,35.2,29.75,SW,234,4.0,21.0,91,0.01,,SKC,0.33,VWS V14.01,2013-03-18 22:59:00,
2013-03-18 19:04:00,37.6,35.2,29.76,WSW,246,3.0,14.0,91,0.01,,SKC,0.33,VWS V14.01,2013-03-18 23:04:00,
2013-03-18 19:09:00,37.5,35.1,29.76,WSW,258,5.0,16.0,91,0.01,,SKC,0.33,VWS V14.01,2013-03-18 23:09:00,
2013-03-18 19:14:00,37.3,34.9,29.76,WNW,284,6.0,18.0,91,0.01,,SKC,0.33,VWS V14.01,2013-03-18 23:14:00,
2013-03-18 19:19:00,37.3,34.9,29.77,WSW,240,4.0,18.0,91,0.01,,SKC,0.33,VWS V14.01,2013-03-18 23:19:00,
2013-03-18 19:25:00,37.3,34.9,29.77,WSW,254,4.0,18.0,91,0.01,,SKC,0.33,VWS V14.01,2013-03-18 23:25:00,
2013-03-18 19:30:00,37.3,34.9,29.78,SSW,211,3.0,18.0,91,0.01,,SKC,0.33,VWS V14.01,2013-03-18 23:30:00,
2013-03-18 19:35:00,37.2,34.8,29.78,West,259,10.0,16.0,91,0.00,,SKC,0.33,VWS V14.01,2013-03-18 23:35:00,
2013-03-18 19:40:00,37.0,34.6,29.78,SSW,204,17.0,17.0,91,0.00,,SKC,0.33,VWS V14.01,2013-03-18 23:40:00,
2013-03-18 19:45:00,37.0,34.6,29.79,WSW,255,4.0,17.0,91,0.00,,SKC,0.33,VWS V14.01,2013-03-18 23:45:00,
2013-03-18 19:50:00,37.0,34.6,29.79,WSW,256,4.0,17.0,91,0.00,,SKC,0.33,VWS V14.01,2013-03-18 23:50:00,
2013-03-18 19:55:00,37.0,34.6,29.79,WSW,240,3.0,17.0,91,0.00,,SKC,0.33,VWS V14.01,2013-03-18 23:55:00,
2013-03-18 20:00:00,37.0,34.3,29.80,SSW,202,4.0,18.0,90,0.00,,SKC,0.33,VWS V14.01,2013-03-19 00:00:00,
2013-03-18 20:05:00,37.0,34.3,29.80,SW,234,6.0,12.0,90,0.00,,SKC,0.33,VWS V14.01,2013-03-19 00:05:00,
2013-03-18 20:10:00,37.0,34.3,29.80,West,270,2.0,15.0,90,0.00,,SKC,0.33,VWS V14.01,2013-03-19 00:10:00,
2013-03-18 20:15:00,37.0,34.3,29.81,South,179,4.0,15.0,90,0.00,,SKC,0.33,VWS V14.01,2013-03-19 00:15:00,
2013-03-18 20:20:00,37.0,34.3,29.81,WNW,285,2.0,15.0,90,0.00,,SKC,0.33,VWS V14.01,2013-03-19 00:20:00,
2013-03-18 20:25:00,37.0,34.3,29.81,SW,233,4.0,15.0,90,0.00,,SKC,0.33,VWS V14.01,2013-03-19 00:25:00,
2013-03-18 20:30:00,37.0,34.3,29.81,West,269,4.0,17.0,90,0.00,,SKC,0.33,VWS V14.01,2013-03-19 00:30:00,
2013-03-18 20:35:00,37.0,34.3,29.81,WSW,258,3.0,10.0,90,0.00,,SKC,0.33,VWS V14.01,2013-03-19 00:35:00,
2013-03-18 20:40:00,37.0,34.3,29.81,SSW,210,3.0,15.0,90,0.00,,SKC,0.33,VWS V14.01,2013-03-19 00:40:00,
2013-03-18 20:46:00,37.0,34.3,29.81,WSW,239,3.0,15.0,90,0.00,,SKC,0.33,VWS V14.01,2013-03-19 00:46:00,
2013-03-18 20:51:00,37.0,34.6,29.81,WSW,248,2.0,15.0,91,0.01,,SKC,0.34,VWS V14.01,2013-03-19 00:51:00,
2013-03-18 20:56:00,37.0,34.6,29.81,SW,225,1.0,15.0,91,0.01,,SKC,0.34,VWS V14.01,2013-03-19 00:56:00,
2013-03-18 21:01:00,37.0,34.6,29.81,West,259,4.0,7.0,91,0.01,,SKC,0.34,VWS V14.01,2013-03-19 01:01:00,
2013-03-18 21:07:00,37.0,34.6,29.81,WSW,250,5.0,10.0,91,0.01,,SKC,0.34,VWS V14.01,2013-03-19 01:07:00,
2013-03-18 21:12:00,37.0,34.6,29.81,WSW,239,3.0,12.0,91,0.01,,SKC,0.34,VWS V14.01,2013-03-19 01:12:00,
2013-03-18 21:17:00,37.0,34.6,29.82,SW,214,5.0,12.0,91,0.01,,SKC,0.34,VWS V14.01,2013-03-19 01:17:00,
2013-03-18 21:22:00,37.0,34.6,29.82,West,268,3.0,12.0,91,0.01,,SKC,0.34,VWS V14.01,2013-03-19 01:22:00,
2013-03-18 21:27:00,37.0,34.6,29.82,WSW,252,5.0,12.0,91,0.01,,SKC,0.34,VWS V14.01,2013-03-19 01:27:00,
2013-03-18 21:32:00,37.2,34.8,29.82,West,268,4.0,9.0,91,0.01,,SKC,0.34,VWS V14.01,2013-03-19 01:32:00,
2013-03-18 21:37:00,37.2,34.8,29.82,WNW,300,3.0,12.0,91,0.01,,SKC,0.34,VWS V14.01,2013-03-19 01:37:00,
2013-03-18 21:42:00,37.2,34.8,29.82,SW,230,3.0,17.0,91,0.01,,SKC,0.34,VWS V14.01,2013-03-19 01:42:00,
2013-03-18 21:47:00,37.2,34.5,29.83,West,269,16.0,17.0,90,0.01,,SKC,0.34,VWS V14.01,2013-03-19 01:47:00,
2013-03-18 21:53:00,37.3,34.6,29.83,SW,236,3.0,17.0,90,0.01,,SKC,0.34,VWS V14.01,2013-03-19 01:53:00,
2013-03-18 21:58:00,37.3,34.4,29.83,SW,233,3.0,17.0,89,0.01,,SKC,0.34,VWS V14.01,2013-03-19 01:58:00,
2013-03-18 22:03:00,37.2,34.3,29.83,West,271,2.0,12.0,89,0.00,,SKC,0.34,VWS V14.01,2013-03-19 02:03:00,
2013-03-18 22:08:00,37.3,34.1,29.83,West,259,7.0,13.0,88,0.00,,SKC,0.34,VWS V14.01,2013-03-19 02:08:00,
2013-03-18 22:13:00,37.3,34.1,29.83,SW,219,2.0,13.0,88,0.00,,SKC,0.34,VWS V14.01,2013-03-19 02:13:00,
2013-03-18 22:18:00,37.3,33.8,29.83,WSW,251,6.0,13.0,87,0.00,,SKC,0.34,VWS V14.01,2013-03-19 02:18:00,
2013-03-18 22:23:00,37.2,33.7,29.83,West,266,1.0,13.0,87,0.00,,SKC,0.34,VWS V14.01,2013-03-19 02:23:00,
2013-03-18 22:28:00,37.2,33.4,29.83,SW,222,5.0,13.0,86,0.00,,SKC,0.34,VWS V14.01,2013-03-19 02:28:00,
2013-03-18 22:33:00,37.2,33.4,29.83,SSW,207,5.0,11.0,86,0.00,,SKC,0.34,VWS V14.01,2013-03-19 02:33:00,
2013-03-18 22:38:00,37.2,33.4,29.83,SW,229,3.0,14.0,86,0.00,,SKC,0.34,VWS V14.01,2013-03-19 02:38:00,
2013-03-18 22:44:00,37.2,33.1,29.83,SSW,208,3.0,14.0,85,0.00,,SKC,0.34,VWS V14.01,2013-03-19 02:44:00,
2013-03-18 22:49:00,37.2,33.1,29.83,SW,233,2.0,14.0,85,0.00,,SKC,0.34,VWS V14.01,2013-03-19 02:49:00,
2013-03-18 22:54:00,37.2,33.1,29.83,SSW,200,3.0,14.0,85,0.00,,SKC,0.34,VWS V14.01,2013-03-19 02:54:00,
2013-03-18 22:59:00,37.2,33.1,29.83,SW,234,0.0,14.0,85,0.00,,SKC,0.34,VWS V14.01,2013-03-19 02:59:00,
2013-03-18 23:04:00,37.3,33.2,29.84,SW,215,10.0,11.0,85,0.00,,SKC,0.34,VWS V14.01,2013-03-19 03:04:00,
2013-03-18 23:09:00,37.3,33.2,29.84,SW,218,4.0,13.0,85,0.00,,SKC,0.34,VWS V14.01,2013-03-19 03:09:00,
2013-03-18 23:14:00,37.5,33.1,29.84,SSW,202,9.0,14.0,84,0.00,,SKC,0.34,VWS V14.01,2013-03-19 03:14:00,
2013-03-18 23:19:00,37.5,33.1,29.84,SSW,212,2.0,14.0,84,0.00,,SKC,0.34,VWS V14.01,2013-03-19 03:19:00,
2013-03-18 23:24:00,37.5,33.1,29.84,WSW,240,6.0,14.0,84,0.00,,SKC,0.34,VWS V14.01,2013-03-19 03:24:00,
2013-03-18 23:29:00,37.6,33.2,29.84,SW,233,2.0,14.0,84,0.00,,SKC,0.34,VWS V14.01,2013-03-19 03:29:00,
2013-03-18 23:34:00,37.6,33.2,29.85,SSW,203,4.0,7.0,84,0.00,,SKC,0.34,VWS V14.01,2013-03-19 03:34:00,
2013-03-18 23:39:00,37.6,33.2,29.85,SW,229,4.0,14.0,84,0.00,,SKC,0.34,VWS V14.01,2013-03-19 03:39:00,
2013-03-18 23:44:00,37.6,33.2,29.85,WSW,253,13.0,14.0,84,0.00,,SKC,0.34,VWS V14.01,2013-03-19 03:44:00,
2013-03-18 23:49:00,37.6,33.2,29.86,WNW,291,5.0,14.0,84,0.00,,SKC,0.34,VWS V14.01,2013-03-19 03:49:00,
2013-03-18 23:54:00,37.6,33.2,29.86,WSW,250,6.0,14.0,84,0.00,,SKC,0.34,VWS V14.01,2013-03-19 03:54:00,
2013-03-18 23:59:00,37.5,32.8,29.86,West,279,2.0,14.0,83,0.00,,SKC,0.34,VWS V14.01,2013-03-19 03:59:00,